OAL883 GLRB-DGAA

Flight info

Callsign OAL883
Flight time N/A
Altitude 31000
Route ROB UB600 AD UR979 SESIG UY57 KELOB DCT DIRKO
Aircraft B738/M-SDE2E3FGHIRWXY/LB1

Departure

Time N/A
Airport Roberts International Airport (GLRB)

Arrival

Time 2026-04-21 20:02
Airport Kotoka International Airport (DGAA)
Time Latitude Longitude Altitude Speed Heading
2026-04-21 18:28 6.00404 -8.75971 30833 ft 441 kts 88°
2026-04-21 18:29 6.00349 -8.72883 30825 ft 442 kts 88°
2026-04-21 18:29 5.99996 -8.66745 30845 ft 440 kts 95°
2026-04-21 18:30 5.99029 -8.60662 30853 ft 442 kts 97°
2026-04-21 18:30 5.97997 -8.54574 30855 ft 442 kts 97°
2026-04-21 18:31 5.97028 -8.48473 30855 ft 442 kts 96°
2026-04-21 18:31 5.96097 -8.42356 30854 ft 442 kts 96°
2026-04-21 18:32 5.95178 -8.36249 30851 ft 443 kts 96°
2026-04-21 18:32 5.94261 -8.30169 30855 ft 444 kts 96°
2026-04-21 18:33 5.93325 -8.23963 30861 ft 455 kts 96°
2026-04-21 18:33 5.92478 -8.18357 30862 ft 463 kts 96°
2026-04-21 18:34 5.91508 -8.11959 30846 ft 463 kts 96°
2026-04-21 18:34 5.90538 -8.05571 30849 ft 463 kts 96°
2026-04-21 18:35 5.89732 -8.00258 30852 ft 462 kts 96°
2026-04-21 18:35 5.88607 -7.92845 30852 ft 461 kts 96°
2026-04-21 18:36 5.87640 -7.86477 30851 ft 461 kts 96°
2026-04-21 18:36 5.86673 -7.80117 30854 ft 460 kts 96°
2026-04-21 18:37 5.85709 -7.73784 30850 ft 460 kts 96°
2026-04-21 18:37 5.84742 -7.67431 30854 ft 459 kts 96°
2026-04-21 18:38 5.83776 -7.61089 30855 ft 459 kts 96°
2026-04-21 18:38 5.82815 -7.54783 30849 ft 459 kts 96°
2026-04-21 18:39 5.81846 -7.48434 30855 ft 459 kts 96°
2026-04-21 18:39 5.80881 -7.42098 30852 ft 460 kts 96°
2026-04-21 18:40 5.79936 -7.35751 30852 ft 460 kts 96°
2026-04-21 18:40 5.79154 -7.30466 30852 ft 460 kts 96°
2026-04-21 18:41 5.78047 -7.23007 30857 ft 460 kts 96°
2026-04-21 18:41 5.77109 -7.16703 30854 ft 460 kts 97°
2026-04-21 18:42 5.76161 -7.10342 30857 ft 460 kts 97°
2026-04-21 18:42 5.75371 -7.05045 30859 ft 460 kts 97°
2026-04-21 18:43 5.74420 -6.98674 30859 ft 460 kts 97°
2026-04-21 18:43 5.73471 -6.92321 30857 ft 460 kts 97°
2026-04-21 18:44 5.72520 -6.85960 30856 ft 460 kts 97°
2026-04-21 18:44 5.71573 -6.79631 30850 ft 460 kts 97°
2026-04-21 18:45 5.70617 -6.73241 30855 ft 460 kts 97°
2026-04-21 18:45 5.69665 -6.66886 30854 ft 460 kts 97°
2026-04-21 18:46 5.68717 -6.60565 30852 ft 460 kts 97°
2026-04-21 18:46 5.67760 -6.54186 30852 ft 461 kts 97°
2026-04-21 18:47 5.66806 -6.47831 30856 ft 460 kts 97°
2026-04-21 18:47 5.65850 -6.41466 30849 ft 460 kts 97°
2026-04-21 18:48 5.64900 -6.35154 30851 ft 460 kts 97°
2026-04-21 18:48 5.63944 -6.28795 30850 ft 460 kts 97°
2026-04-21 18:49 5.62988 -6.22447 30851 ft 460 kts 97°
2026-04-21 18:49 5.62191 -6.17154 30854 ft 460 kts 97°
2026-04-21 18:50 5.61073 -6.09733 30853 ft 460 kts 97°
2026-04-21 18:50 5.60115 -6.03383 30854 ft 460 kts 97°
2026-04-21 18:51 5.59161 -5.97060 30853 ft 460 kts 97°
2026-04-21 18:51 5.58201 -5.90706 30849 ft 460 kts 97°
2026-04-21 18:52 5.57239 -5.84334 30855 ft 461 kts 97°
2026-04-21 18:52 5.56278 -5.77980 30851 ft 461 kts 97°
2026-04-21 18:53 5.55328 -5.71653 30854 ft 461 kts 97°
2026-04-21 18:53 5.54382 -5.65286 30848 ft 461 kts 96°
2026-04-21 18:54 5.53437 -5.58921 30853 ft 461 kts 96°
2026-04-21 18:54 5.52488 -5.52543 30849 ft 462 kts 96°
2026-04-21 18:55 5.51697 -5.47235 30851 ft 463 kts 96°
2026-04-21 18:55 5.50580 -5.39750 30849 ft 463 kts 96°
2026-04-21 18:56 5.49632 -5.33400 30851 ft 464 kts 96°
2026-04-21 18:56 5.48676 -5.26997 30844 ft 464 kts 96°
2026-04-21 18:57 5.47719 -5.20597 30842 ft 463 kts 96°
2026-04-21 18:57 5.46762 -5.14202 30845 ft 463 kts 96°
2026-04-21 18:58 5.45806 -5.07816 30842 ft 462 kts 96°
2026-04-21 18:58 5.44850 -5.01440 30838 ft 462 kts 96°
2026-04-21 18:59 5.43895 -4.95072 30841 ft 461 kts 96°
2026-04-21 18:59 5.42920 -4.88689 30834 ft 462 kts 97°
2026-04-21 19:00 5.41927 -4.82361 30833 ft 462 kts 96°
2026-04-21 19:00 5.41019 -4.75976 30844 ft 462 kts 96°
2026-04-21 19:01 5.40072 -4.69590 30843 ft 463 kts 96°
2026-04-21 19:01 5.39108 -4.63189 30838 ft 464 kts 96°
2026-04-21 19:02 5.38140 -4.56780 30827 ft 465 kts 96°
2026-04-21 19:02 5.37178 -4.50406 30829 ft 465 kts 96°
2026-04-21 19:03 5.36209 -4.43981 30835 ft 465 kts 96°
2026-04-21 19:03 5.35240 -4.37556 30830 ft 466 kts 96°
2026-04-21 19:04 5.34268 -4.31122 30828 ft 466 kts 96°
2026-04-21 19:04 5.33297 -4.24697 30825 ft 466 kts 96°
2026-04-21 19:05 5.32324 -4.18264 30825 ft 466 kts 96°
2026-04-21 19:05 5.31352 -4.11828 30836 ft 465 kts 96°
2026-04-21 19:06 5.30361 -4.05411 30825 ft 465 kts 96°
2026-04-21 19:06 5.29407 -3.99008 30830 ft 464 kts 96°
2026-04-21 19:07 5.28437 -3.92663 30856 ft 463 kts 98°
2026-04-21 19:07 5.26564 -3.86465 30862 ft 465 kts 108°
2026-04-21 19:08 5.24308 -3.80378 30848 ft 465 kts 108°
2026-04-21 19:08 5.22072 -3.74291 30828 ft 465 kts 108°
2026-04-21 19:09 5.19871 -3.68189 30830 ft 465 kts 107°
2026-04-21 19:09 5.17682 -3.62075 30832 ft 466 kts 107°
2026-04-21 19:10 5.15487 -3.55947 30839 ft 466 kts 107°
2026-04-21 19:10 5.13292 -3.49823 30840 ft 467 kts 107°
2026-04-21 19:11 5.11089 -3.43682 30840 ft 467 kts 107°
2026-04-21 19:11 5.08911 -3.37587 30839 ft 468 kts 107°
2026-04-21 19:12 5.07079 -3.32491 30836 ft 468 kts 108°
2026-04-21 19:12 5.04494 -3.25311 30842 ft 469 kts 108°
2026-04-21 19:13 5.02296 -3.19192 30846 ft 470 kts 108°
2026-04-21 19:13 5.00080 -3.13024 30848 ft 470 kts 108°
2026-04-21 19:14 4.97860 -3.06845 30848 ft 470 kts 108°
2026-04-21 19:14 4.95719 -3.00657 30833 ft 469 kts 102°
2026-04-21 19:15 4.94922 -2.94225 30848 ft 464 kts 91°
2026-04-21 19:15 4.94583 -2.87793 30847 ft 464 kts 90°
2026-04-21 19:16 4.94202 -2.81326 30847 ft 464 kts 91°
2026-04-21 19:16 4.93804 -2.74874 30838 ft 463 kts 91°
2026-04-21 19:17 4.93206 -2.65213 30834 ft 462 kts 91°
2026-04-21 19:17 4.92801 -2.58808 30837 ft 462 kts 91°
2026-04-21 19:18 4.92393 -2.52384 30839 ft 462 kts 91°
2026-04-21 19:18 4.91985 -2.45951 30842 ft 462 kts 91°
2026-04-21 19:19 4.91575 -2.39512 30841 ft 462 kts 91°
2026-04-21 19:19 4.91165 -2.33084 30845 ft 462 kts 91°
2026-04-21 19:20 4.90757 -2.26676 30840 ft 463 kts 91°
2026-04-21 19:20 4.90345 -2.20231 30844 ft 463 kts 91°
2026-04-21 19:21 4.89932 -2.13775 30836 ft 464 kts 91°
2026-04-21 19:21 4.89518 -2.07319 30838 ft 464 kts 91°
2026-04-21 19:22 4.89105 -2.00885 30833 ft 465 kts 91°
2026-04-21 19:22 4.88689 -1.94412 30835 ft 465 kts 91°
2026-04-21 19:23 4.88272 -1.87941 30834 ft 465 kts 91°
2026-04-21 19:23 4.87855 -1.81471 30835 ft 465 kts 91°
2026-04-21 19:24 4.87439 -1.75026 30827 ft 465 kts 91°
2026-04-21 19:24 4.87018 -1.68516 30827 ft 465 kts 91°
2026-04-21 19:25 4.86597 -1.62028 30827 ft 465 kts 91°
2026-04-21 19:25 4.86181 -1.55609 30834 ft 465 kts 91°
2026-04-21 19:26 4.85760 -1.49130 30843 ft 465 kts 91°
2026-04-21 19:26 4.85340 -1.42658 30840 ft 465 kts 91°
2026-04-21 19:27 4.85013 -1.36185 30833 ft 463 kts 82°
2026-04-21 19:27 4.85747 -1.33091 30848 ft 454 kts 64°
2026-04-21 19:27 4.87286 -1.30373 30812 ft 443 kts 50°
2026-04-21 19:28 4.89362 -1.28153 30310 ft 434 kts 35°
2026-04-21 19:28 4.91836 -1.26467 29935 ft 426 kts 30°
2026-04-21 19:28 4.94329 -1.24890 29415 ft 423 kts 29°
2026-04-21 19:28 4.96816 -1.23335 28938 ft 419 kts 29°
2026-04-21 19:29 4.99244 -1.21806 28467 ft 415 kts 30°
2026-04-21 19:29 5.01673 -1.20260 28010 ft 412 kts 30°
2026-04-21 19:29 5.04084 -1.18712 27559 ft 408 kts 31°
2026-04-21 19:29 5.06460 -1.17180 27116 ft 405 kts 31°
2026-04-21 19:30 5.08828 -1.15650 26680 ft 402 kts 31°
2026-04-21 19:30 5.11165 -1.14138 26244 ft 400 kts 31°
2026-04-21 19:30 5.13497 -1.12629 25811 ft 397 kts 31°
2026-04-21 19:30 5.15823 -1.11125 25365 ft 396 kts 32°
2026-04-21 19:31 5.17351 -1.10137 25070 ft 395 kts 32°
2026-04-21 19:31 5.19657 -1.08648 24626 ft 393 kts 32°
2026-04-21 19:31 5.21912 -1.07089 24163 ft 393 kts 41°
2026-04-21 19:31 5.24077 -1.04214 23635 ft 389 kts 58°
2026-04-21 19:32 5.25521 -1.01914 23123 ft 390 kts 58°
2026-04-21 19:32 5.26509 -1.00372 22811 ft 388 kts 58°
2026-04-21 19:32 5.27965 -0.98122 22355 ft 386 kts 57°
2026-04-21 19:32 5.29424 -0.95876 21916 ft 383 kts 58°
2026-04-21 19:33 5.30876 -0.93645 21474 ft 381 kts 57°
2026-04-21 19:33 5.32320 -0.91424 21048 ft 378 kts 58°
2026-04-21 19:33 5.33757 -0.89213 20632 ft 376 kts 58°
2026-04-21 19:33 5.35179 -0.87023 20185 ft 375 kts 58°
2026-04-21 19:34 5.36598 -0.84839 19759 ft 373 kts 58°
2026-04-21 19:34 5.38012 -0.82660 19318 ft 372 kts 58°
2026-04-21 19:34 5.39425 -0.80483 18885 ft 371 kts 58°
2026-04-21 19:34 5.40827 -0.78323 18462 ft 369 kts 58°
2026-04-21 19:35 5.42231 -0.76160 18001 ft 368 kts 58°
2026-04-21 19:35 5.45006 -0.71881 17105 ft 363 kts 58°
2026-04-21 19:35 5.46379 -0.69765 16681 ft 360 kts 58°
2026-04-21 19:36 5.47726 -0.67690 16277 ft 357 kts 58°
2026-04-21 19:36 5.49071 -0.65616 15866 ft 354 kts 58°
2026-04-21 19:36 5.50417 -0.63545 15430 ft 352 kts 58°
2026-04-21 19:36 5.51750 -0.61496 15020 ft 349 kts 58°
2026-04-21 19:37 5.53072 -0.59464 14577 ft 347 kts 58°
2026-04-21 19:37 5.54387 -0.57442 14152 ft 345 kts 58°
2026-04-21 19:37 5.55698 -0.55426 13723 ft 343 kts 58°
2026-04-21 19:37 5.57001 -0.53421 13251 ft 341 kts 58°
2026-04-21 19:38 5.58293 -0.51433 12819 ft 338 kts 58°
2026-04-21 19:38 5.59573 -0.49465 12391 ft 335 kts 59°
2026-04-21 19:38 5.60801 -0.47494 11976 ft 330 kts 65°
2026-04-21 19:38 5.61473 -0.45320 11604 ft 324 kts 82°
2026-04-21 19:39 5.61732 -0.43108 11255 ft 320 kts 84°
2026-04-21 19:39 5.61940 -0.40903 10887 ft 316 kts 85°
2026-04-21 19:39 5.62146 -0.38719 10526 ft 306 kts 85°
2026-04-21 19:39 5.62348 -0.36655 10186 ft 294 kts 84°
2026-04-21 19:40 5.62553 -0.34656 9851 ft 283 kts 84°
2026-04-21 19:40 5.62754 -0.32747 9833 ft 267 kts 84°
2026-04-21 19:40 5.62949 -0.30900 9338 ft 271 kts 84°
2026-04-21 19:40 5.63147 -0.29039 8946 ft 272 kts 84°
2026-04-21 19:41 5.63350 -0.27151 8629 ft 271 kts 83°
2026-04-21 19:41 5.63972 -0.25362 8290 ft 274 kts 58°
2026-04-21 19:41 5.65266 -0.23954 7991 ft 277 kts 40°
2026-04-21 19:41 5.66982 -0.23046 7680 ft 280 kts 26°
2026-04-21 19:42 5.68782 -0.22319 7348 ft 278 kts 25°
2026-04-21 19:42 5.70542 -0.21615 7030 ft 271 kts 25°
2026-04-21 19:42 5.72308 -0.20904 6453 ft 277 kts 24°
2026-04-21 19:42 5.74113 -0.20168 5813 ft 282 kts 24°
2026-04-21 19:43 5.75946 -0.19413 5112 ft 288 kts 24°
2026-04-21 19:43 5.77652 -0.18366 4355 ft 291 kts 49°
2026-04-21 19:43 5.78661 -0.16632 3720 ft 288 kts 76°
2026-04-21 19:43 5.78833 -0.14673 3257 ft 280 kts 98°
2026-04-21 19:44 5.78239 -0.12857 2729 ft 274 kts 127°
2026-04-21 19:44 5.76809 -0.11695 2463 ft 259 kts 158°
2026-04-21 19:44 5.75107 -0.11282 2282 ft 244 kts 176°
2026-04-21 19:44 5.73518 -0.11463 2148 ft 222 kts 196°
2026-04-21 19:45 5.72133 -0.11945 2055 ft 198 kts 200°
2026-04-21 19:45 5.70912 -0.12442 1948 ft 180 kts 203°
2026-04-21 19:45 5.69802 -0.12907 1982 ft 171 kts 201°
2026-04-21 19:45 5.68713 -0.13353 1781 ft 167 kts 202°
2026-04-21 19:46 5.67659 -0.13787 1573 ft 159 kts 201°
2026-04-21 19:46 5.66629 -0.14211 1370 ft 160 kts 200°
2026-04-21 19:46 5.65604 -0.14631 1162 ft 154 kts 201°
2026-04-21 19:46 5.64688 -0.15010 945 ft 136 kts 201°
2026-04-21 19:47 5.63818 -0.15362 730 ft 138 kts 200°
2026-04-21 19:47 5.62921 -0.15737 532 ft 139 kts 203°
2026-04-21 19:47 5.62035 -0.16107 333 ft 137 kts 200°
2026-04-21 19:47 5.61151 -0.16461 290 ft 133 kts 201°
2026-04-21 19:48 5.60287 -0.16818 259 ft 154 kts 201°
2026-04-21 19:48 5.59165 -0.17270 722 ft 179 kts 201°
2026-04-21 19:48 5.58038 -0.17690 1596 ft 185 kts 199°
2026-04-21 19:48 5.56668 -0.18067 1614 ft 218 kts 195°
2026-04-21 19:49 5.55103 -0.18606 1915 ft 235 kts 205°
2026-04-21 19:49 5.53883 -0.19486 3242 ft 207 kts 226°
2026-04-21 19:49 5.53046 -0.20730 3801 ft 232 kts 241°
2026-04-21 19:49 5.52481 -0.22436 3442 ft 288 kts 261°
2026-04-21 19:50 5.52532 -0.23856 3149 ft 325 kts 281°
2026-04-21 19:50 5.53891 -0.26543 4102 ft 322 kts 310°
2026-04-21 19:50 5.55618 -0.27860 5210 ft 310 kts 339°
2026-04-21 19:50 5.57769 -0.28318 5317 ft 330 kts 360°
2026-04-21 19:51 5.60201 -0.28145 4958 ft 374 kts 11°
2026-04-21 19:51 5.62831 -0.27554 5358 ft 398 kts 17°
2026-04-21 19:51 5.65513 -0.26628 5810 ft 418 kts 25°
2026-04-21 19:51 5.68083 -0.25275 6172 ft 414 kts 33°
2026-04-21 19:52 5.70579 -0.23865 5187 ft 410 kts 27°
2026-04-21 19:52 5.72932 -0.22430 5284 ft 374 kts 42°
2026-04-21 19:52 5.74692 -0.20704 5726 ft 341 kts 50°
2026-04-21 19:52 5.76170 -0.18895 5409 ft 332 kts 53°
2026-04-21 19:53 5.77561 -0.17024 4680 ft 337 kts 55°
2026-04-21 19:53 5.78865 -0.15129 4469 ft 324 kts 59°
2026-04-21 19:53 5.80022 -0.13260 4718 ft 295 kts 57°
2026-04-21 19:53 5.81222 -0.11700 4989 ft 273 kts 46°
2026-04-21 19:54 5.82568 -0.10381 4407 ft 269 kts 48°
2026-04-21 19:54 5.83820 -0.08992 3846 ft 261 kts 46°
2026-04-21 19:54 5.85048 -0.07715 3383 ft 249 kts 52°
2026-04-21 19:54 5.86238 -0.06526 2958 ft 239 kts 36°
2026-04-21 19:55 5.87369 -0.05468 3004 ft 207 kts 53°
2026-04-21 19:55 5.87970 -0.04251 3692 ft 178 kts 88°
2026-04-21 19:55 5.87665 -0.03194 4823 ft 161 kts 131°
2026-04-21 19:55 5.86557 -0.02615 4906 ft 205 kts 174°
2026-04-21 19:56 5.85128 -0.02884 4401 ft 219 kts 205°
2026-04-21 19:56 5.83960 -0.03929 3057 ft 245 kts 241°
2026-04-21 19:56 5.83260 -0.05429 2717 ft 220 kts 223°
2026-04-21 19:56 5.82021 -0.06266 2140 ft 213 kts 210°
2026-04-21 19:57 5.80845 -0.07044 1890 ft 192 kts 214°
2026-04-21 19:57 5.79847 -0.07801 1804 ft 168 kts 216°
2026-04-21 19:57 5.78954 -0.08487 1668 ft 156 kts 213°
2026-04-21 19:57 5.78057 -0.09097 1635 ft 159 kts 210°
2026-04-21 19:58 5.77100 -0.09669 1694 ft 163 kts 208°
2026-04-21 19:58 5.76102 -0.10220 1732 ft 163 kts 206°
2026-04-21 19:58 5.75085 -0.10721 1840 ft 162 kts 203°
2026-04-21 19:58 5.74044 -0.11155 1934 ft 163 kts 201°
2026-04-21 19:59 5.72986 -0.11577 1997 ft 164 kts 200°
2026-04-21 19:59 5.71913 -0.12003 1984 ft 168 kts 202°
2026-04-21 19:59 5.70841 -0.12480 2001 ft 167 kts 202°
2026-04-21 19:59 5.69778 -0.12926 1913 ft 166 kts 202°
2026-04-21 20:00 5.68726 -0.13365 1784 ft 163 kts 202°
2026-04-21 20:00 5.67676 -0.13815 1627 ft 160 kts 201°
2026-04-21 20:00 5.66674 -0.14242 1411 ft 155 kts 201°
2026-04-21 20:00 5.65676 -0.14647 1163 ft 154 kts 199°
2026-04-21 20:01 5.64682 -0.15017 912 ft 149 kts 201°
2026-04-21 20:01 5.63734 -0.15401 648 ft 145 kts 200°
2026-04-21 20:01 5.62787 -0.15787 451 ft 146 kts 202°
2026-04-21 20:01 5.61846 -0.16170 265 ft 144 kts 200°
2026-04-21 20:02 5.60972 -0.16538 220 ft 124 kts 204°
2026-04-21 20:02 5.60318 -0.16806 215 ft 81 kts 202°
2026-04-21 20:02 5.60004 -0.16939 207 ft 20 kts 210°
2026-04-21 20:02 5.59900 -0.17036 212 ft 16 kts 229°
2026-04-21 20:03 5.59848 -0.17102 205 ft 3 kts 232°
2026-04-21 20:03 5.59837 -0.17116 205 ft 0 kts 232°
2026-04-21 20:04 5.59826 -0.17137 205 ft 7 kts 251°
2026-04-21 20:04 5.59836 -0.17181 208 ft 7 kts 309°
2026-04-21 20:04 5.59877 -0.17195 211 ft 6 kts
2026-04-21 20:05 5.59920 -0.17180 208 ft 6 kts 25°
2026-04-21 20:05 5.59960 -0.17162 211 ft 6 kts 23°
2026-04-21 20:05 5.60000 -0.17146 215 ft 6 kts 21°
2026-04-21 20:05 5.60040 -0.17131 208 ft 6 kts 21°
2026-04-21 20:06 5.60078 -0.17114 209 ft 6 kts 24°
2026-04-21 20:06 5.60116 -0.17098 210 ft 6 kts 24°
2026-04-21 20:06 5.60153 -0.17082 209 ft 6 kts 22°
2026-04-21 20:06 5.60210 -0.17058 212 ft 10 kts 22°
2026-04-21 20:07 5.60276 -0.17031 217 ft 10 kts 22°
2026-04-21 20:07 5.60342 -0.17004 219 ft 10 kts 22°
2026-04-21 20:07 5.60383 -0.16988 217 ft 10 kts 22°
2026-04-21 20:07 5.60464 -0.16954 222 ft 9 kts 22°
2026-04-21 20:08 5.60524 -0.16929 221 ft 9 kts 22°
2026-04-21 20:08 5.60583 -0.16905 219 ft 9 kts 22°
2026-04-21 20:08 5.60639 -0.16882 221 ft 9 kts 22°
2026-04-21 20:08 5.60693 -0.16860 222 ft 8 kts 22°
2026-04-21 20:09 5.60747 -0.16838 221 ft 8 kts 22°
2026-04-21 20:09 5.60790 -0.16851 221 ft 7 kts 303°
2026-04-21 20:09 5.60814 -0.16897 221 ft 7 kts 295°
2026-04-21 20:09 5.60808 -0.16941 221 ft 7 kts 226°
2026-04-21 20:10 5.60778 -0.16956 221 ft 0 kts 204°